JH5EWP-13 Weather Reports


Display with metric or nautical units.
time (UTC)temp
F
wind
direction
speed
MPH
gust
MPH
rain 1hr
in
rain 24hr
in
rain mn
in
humidity
%
barometer
mb
20260509090623 69 239 3.0 5.0 0.00 0.00 0.00 34 1007.5
20260509085123 69 252 3.0 6.0 0.00 0.00 0.00 34 1007.2
20260509083623 69 254 3.0 6.0 0.00 0.00 0.00 41 1007.1
20260509082123 70 242 3.0 6.0 0.00 0.00 0.00 38 1007.3
20260509080623 70 270 4.0 6.0 0.00 0.00 0.00 37 1007.2
20260509075123 71 255 3.0 7.0 0.00 0.00 0.00 37 1007.1
20260509073623 70 260 4.0 9.0 0.00 0.00 0.00 41 1007.0
20260509072123 69 242 5.0 8.0 0.00 0.00 0.00 36 1007.1
20260509070624 70 234 4.0 7.0 0.00 0.00 0.00 40 1007.2
20260509065124 70 242 3.0 8.0 0.00 0.00 0.00 39 1007.0
20260509063624 69 258 5.0 9.0 0.00 0.00 0.00 38 1007.2
20260509062124 69 232 6.0 12.0 0.00 0.00 0.00 41 1007.3
20260509060624 70 257 7.0 12.0 0.00 0.00 0.00 39 1007.3
20260509055123 69 231 7.0 12.0 0.00 0.00 0.00 32 1007.3
20260509053624 71 281 6.0 11.0 0.00 0.00 0.00 32 1007.4
20260509052123 72 266 6.0 11.0 0.00 0.00 0.00 30 1007.4
20260509050623 72 241 5.0 8.0 0.00 0.00 0.00 25 1007.3
20260509045123 72 209 5.0 9.0 0.00 0.00 0.00 31 1007.4
20260509043623 74 228 4.0 9.0 0.00 0.00 0.00 24 1007.4
20260509042123 77 338 4.0 11.0 0.00 0.00 0.00 15 1007.7
20260509040623 76 353 4.0 9.0 0.00 0.00 0.00 15 1007.8
20260509035122 76 340 3.0 9.0 0.00 0.00 0.00 15 1007.9
20260509033622 74 306 6.0 13.0 0.00 0.00 0.00 15 1008.1
20260509032122 74 302 5.0 10.0 0.00 0.00 0.00 15 1008.1
20260509030622 74 316 5.0 9.0 0.00 0.00 0.00 20 1008.1
20260509025123 73 334 5.0 9.0 0.00 0.00 0.00 20 1008.3
20260509023624 73 307 5.0 9.0 0.00 0.00 0.00 20 1008.5
20260509022124 72 322 4.0 10.0 0.00 0.00 0.00 20 1008.7
20260509020624 72 296 6.0 9.0 0.00 0.00 0.00 21 1008.7
20260509015124 72 318 5.0 9.0 0.00 0.00 0.00 22 1009.1
20260509013624 71 307 4.0 10.0 0.00 0.00 0.00 23 1009.1
20260509012124 70 301 5.0 9.0 0.00 0.00 0.00 22 1009.0
20260509010623 71 304 4.0 11.0 0.00 0.00 0.00 24 1009.2
20260509005123 70 295 4.0 9.0 0.00 0.00 0.00 25 1009.1
20260509003623 70 310 4.0 9.0 0.00 0.00 0.00 27 1008.9
20260509002123 70 302 4.0 9.0 0.00 0.00 0.00 24 1009.1
20260509000623 71 306 2.0 6.0 0.00 0.00 0.00 25 1009.2
20260508235123 71 68 3.0 8.0 0.00 0.00 0.00 21 1009.4
20260508233623 71 337 1.0 4.0 0.00 0.00 0.00 24 1009.3
20260508232123 71 23 1.0 3.0 0.00 0.00 0.00 30 1009.6
20260508230623 70 82 1.0 3.0 0.00 0.00 0.00 31 1009.6
20260508225123 69 83 1.0 3.0 0.00 0.00 0.00 31 1009.2
20260508223623 67 59 1.0 3.0 0.00 0.00 0.00 35 1009.6
20260508222123 66 46 1.0 3.0 0.00 0.00 0.00 36 1009.4
20260508220623 65 61 0.0 3.0 0.00 0.00 0.00 40 1009.3
20260508215123 62 46 1.0 2.0 0.00 0.00 0.00 45 1009.2
20260508213622 60 101 0.0 2.0 0.00 0.00 0.00 51 1009.0
20260508212123 58 79 1.0 3.0 0.00 0.00 0.00 53 1008.7
20260508210622 56 45 0.0 3.0 0.00 0.00 0.00 60 1008.5
20260508205122 54 122 0.0 1.0 0.00 0.00 0.00 62 1008.5
20260508203623 53 122 0.0 2.0 0.00 0.00 0.00 62 1008.5
20260508202123 54 118 1.0 3.0 0.00 0.00 0.00 61 1008.3
20260508200623 53 135 0.0 2.0 0.00 0.00 0.00 62 1008.3
20260508195123 53 135 0.0 1.0 0.00 0.00 0.00 61 1008.0
20260508193622 54 109 1.0 3.0 0.00 0.00 0.00 62 1008.0
20260508192124 53 90 1.0 4.0 0.00 0.00 0.00 62 1007.6
20260508190624 54 92 1.0 3.0 0.00 0.00 0.00 62 1007.6
20260508185124 54 103 1.0 3.0 0.00 0.00 0.00 61 1007.3
20260508183624 54 109 2.0 4.0 0.00 0.00 0.00 60 1007.1
20260508182124 54 108 1.0 3.0 0.00 0.00 0.00 60 1007.2
20260508180624 54 90 0.0 3.0 0.00 0.00 0.00 60 1006.9
20260508175123 54 90 0.0 2.0 0.00 0.00 0.00 60 1007.0
20260508173623 54 90 0.0 1.0 0.00 0.00 0.00 58 1007.1
20260508172123 54 97 1.0 3.0 0.00 0.00 0.00 53 1006.7
20260508170622 55 95 1.0 4.0 0.00 0.00 0.00 53 1006.6
20260508165123 55 102 1.0 3.0 0.00 0.00 0.00 53 1006.5
20260508163623 55 101 1.0 3.0 0.00 0.00 0.00 53 1006.4
20260508162123 56 90 1.0 3.0 0.00 0.00 0.00 53 1006.4
20260508160623 56 106 2.0 3.0 0.00 0.00 0.00 53 1006.4
20260508155122 56 100 2.0 4.0 0.00 0.00 0.00 53 1006.4
20260508153622 56 91 3.0 6.0 0.00 0.00 0.00 53 1006.4
20260508152122 57 99 3.0 6.0 0.00 0.00 0.00 53 1006.1
20260508150622 57 106 1.0 4.0 0.00 0.00 0.00 53 1006.1
20260508145122 57 100 2.0 3.0 0.00 0.00 0.00 53 1006.0
20260508143622 58 101 2.0 4.0 0.00 0.00 0.00 52 1006.1
20260508142122 58 104 2.0 3.0 0.00 0.00 0.00 50 1006.0
20260508140622 59 126 2.0 5.0 0.00 0.00 0.00 47 1005.9
20260508135123 59 104 2.0 5.0 0.00 0.00 0.00 48 1005.7
20260508133623 59 91 2.0 3.0 0.00 0.00 0.00 52 1005.7
20260508132122 60 90 3.0 6.0 0.00 0.00 0.00 52 1005.5
20260508130622 60 99 2.0 6.0 0.00 0.00 0.00 52 1005.9
20260508125122 60 94 3.0 6.0 0.00 0.00 0.00 52 1005.6
20260508123622 61 94 3.0 6.0 0.00 0.00 0.00 50 1005.4
20260508122122 62 96 2.0 6.0 0.00 0.00 0.00 49 1005.2
20260508120624 62 60 1.0 3.0 0.00 0.00 0.00 56 1005.1
20260508115123 62 1 0.0 2.0 0.00 0.00 0.00 52 1004.8
20260508113623 62 270 0.0 1.0 0.00 0.00 0.00 42 1004.6
20260508112123 62 270 0.0 1.0 0.00 0.00 0.00 42 1004.5
20260508110623 62 270 0.0 0.0 0.00 0.00 0.00 40 1004.0
20260508105123 63 270 0.0 0.0 0.00 0.00 0.00 40 1003.7
20260508103623 64 277 0.0 2.0 0.00 0.00 0.00 33 1003.6
20260508102123 65 288 3.0 6.0 0.00 0.00 0.00 33 1003.3
20260508100623 65 280 4.0 7.0 0.00 0.00 0.00 35 1002.9
20260508095123 66 282 4.0 8.0 0.00 0.00 0.00 35 1002.9
20260508093623 66 289 5.0 8.0 0.00 0.00 0.00 34 1002.6
20260508092123 68 282 5.0 9.0 0.00 0.00 0.00 38 1002.2